Find Starlink 32153

NORAD ID: 60330 Int'l Des: 2024-136 Owner: SPXS Country: US Constellation: starlink operational
LEOCIRCULAR

当前视图

正在加载3D地球...

About Starlink 32153

Starlink 32153 (NORAD 60330) is a starlink constellation satellite (v2 mini) launched Aug 2, 2024 by SPXS of US. It operates in LEO, CIRCULAR orbit with a mass of 730.00 kg.

即将过境

Passes for default location (London). Set your location on the main map for personalized predictions.

高度历史

Loading altitude history...

两行轨道根数

1 60330U 24136B 26235.83613529 .00000052 00000-0 12661-4 0 9990
2 60330 53.1602 18.7112 0000135 181.3889 178.7113 15.34390364115269
Epoch: Aug 23, 2026 • Age: 10 hours

当前状态

高度 474.1 km
远地点 / 近地点 N/A
速度 7.63 km/s
星下点 -35.78°S, 160.15°E
发射日期 Aug 2, 2024
运行时间 2 years
类型 internet

技术详情

分类 Payload
质量 730.00 kg
干质量 700.00 kg
总质量 730.00 kg
长度 0.30 m
直径 4.10 m
跨度 29.00 m
形状 Box + pan
制造商 SPXS
平台类型 Starlink V2M
阶段状态 In Orbit
所有者/国家 SPXS/US

Most Searched